Regional Weather Roundup
Issued by NWS Bismarck, ND

Home | Current Version | Previous Version | Text Only | Print | Product List | Glossary On
Versions: 1 2 3 4 5 6 7 8 9 10 11 12 13 14 15 16 17 18 19 20 21 22 23 24 25 26 27 28 29 30 31 32 33 34 35 36 37 38 39 40 41 42 43 44 45 46 47 48 49 50
000
ASUS43 KBIS 220210
RWRBIS

NWR BROADCAST TEXT
NATIONAL WEATHER SERVICE BISMARCK ND
900 PM CDT TUE OCT 21 2014

NOTE: "FAIR" INDICATES FEW OR NO CLOUDS BELOW 12,000 FEET WITH NO
SIGNIFICANT WEATHER AND/OR OBSTRUCTIONS TO VISIBILITY.


CITY           SKY/WX    TMP DP  RH WIND       PRES   REMARKS
WILLISTON      PTCLDY    55  43  63 CALM      29.58R
MINOT          CLEAR     58  45  62 SE8       29.60S
MINOT AFB      CLEAR     53  47  80 SE8       29.59S
BISMARCK       CLEAR     67  43  41 SE12      29.68R
DICKINSON      CLEAR     58  44  60 S9        29.61S
GARRISON         N/A     62  49  62 SE7       29.62S
HETTINGER ARPT PTCLDY    65  44  46 S10       29.66S
JAMESTOWN      CLEAR     60  43  53 SE18G26   29.79R
BEACH            N/A     48  39  71 SW6       29.63S
CARRINGTON     FAIR      61  45  55 SE20      29.76R HAZE
CROSBY         FAIR      48  39  71 CALM      29.59S
HARVEY         FAIR      64  45  48 S15G21    29.69S
HAZEN          FAIR      68  48  49 S20G30    29.62R
LINTON         FAIR      68  39  34 SE17      29.73R
MANDAN         FAIR      68  41  37 S20G25    29.68S
OAKES            N/A     64  46  52 SE20      29.85R
RUGBY          FAIR      64  45  48 SE21G28   29.66S
STANLEY        FAIR      55  46  71 SE3       29.60S
TIOGA          FAIR      50  45  81 E3        29.62S
$$

CITY           SKY/WX    TMP DP  RH WIND       PRES   REMARKS
GRAND FORKS    CLEAR     57  41  55 S21G36    29.85S
GRAND FORKS AF CLEAR     56  42  59 S20G30    29.84S
DEVILS LAKE    CLEAR     61  43  51 S24       29.74R
FARGO          CLEAR     58  41  53 SE23G36   29.91R
CANDO          FAIR      57  45  62 SE16G22   29.73S
CAVALIER       FAIR      57  41  54 SE15G22   29.82R
GRAFTON        FAIR      55  41  58 S21G26    29.84R
GWINNER        CLEAR     61  43  51 SE22      29.89R
LANGDON        FAIR      57  41  54 S25G32    29.77S
ROLLA          FAIR      57  43  58 SE15      29.72F
WALHALLA         N/A     57  41  54 SE18G30   29.78S
$$

CITY           SKY/WX    TMP DP  RH WIND       PRES   REMARKS
ABERDEEN       CLEAR     66  45  46 SE18      29.85R
MOBRIDGE       MOCLDY    69  40  34 SE17      29.71R
BUFFALO          N/A     65  41  41 S14       29.60S
RAPID CITY     PTCLDY    64  44  48 SW7       29.76R
GLASGOW        MOCLDY    57  44  62 NW9       29.65R
SIDNEY         CLEAR     54  41  62 CALM      29.61R
WOLF POINT     MOCLDY    60  45  57 W12       29.62R
GLENDIVE       PTCLDY    55  43  62 W12       29.63S
MILES CITY     LGT RAIN  70  42  36 NE5       29.66R
BAKER          LGT RAIN  71  42  35 MISG      29.67R
$$

CITY           SKY/WX    TMP DP  RH WIND       PRES   REMARKS
BILLINGS       CLOUDY    54  30  40 W26G43    29.82R
GREAT FALLS    CLOUDY    44  41  89 SW14      29.85R
REGINA         MOCLDY    55  45  67 SE14      29.57S
ESTEVAN        PTCLDY    50  43  76 E8        29.59S
$$




USA.gov is the U.S. government's official web portal to all federal, state and local government web resources and services.